St. Joseph, KS

8:06 AM CDT on September 18, 2019 (GMT -0500)
Rosecrans Memorial

Weather History for KSTJ - August, 2019

Change the Weather History Date:

Wednesday, August 21, 2019

  Actual Average Record
Temperature  
Mean Temperature 74 °F 75 °F  
Max Temperature 79 °F 86 °F 103 °F (2003)
Min Temperature 69 °F 64 °F 45 °F (1923)
Degree Days  
Heating Degree Days 0 0  
Month to date heating degree days 0 0  
Since 1 June heating degree days 1 9  
Since 1 July heating degree days 0 1  
Cooling Degree Days 9 10  
Month to date cooling degree days 255 237  
Year to date cooling degree days 1076 991  
Since 1 June cooling degree days 975 878  
Growing Degree Days 24 (Base 50)    
Moisture  
Dew Point 69 °F    
Average Humidity 85    
Maximum Humidity 93    
Minimum Humidity 76    
Precipitation  
Precipitation 2.10 in 0.13 in 2.10 in (2019)
Month to date precipitation 5.21 2.57  
Year to date precipitation 27.29 24.89  
Sea Level Pressure  
Sea Level Pressure 29.99 in    
Wind  
Wind Speed 7 mph (NNE)    
Max Wind Speed 32 mph    
Max Gust Speed 43 mph    
Visibility 7 miles    
Events Fog , Rain , Thunderstorm    
T = Trace of Precipitation, MM = Missing Value Source: NWS Daily Summary

Daily Weather History Graph

Daily Weather History Graph

Search for Another Location

Airport or City:

Astronomy

Aug. 21, 2019 Rise Set
Actual Time 6:37 AM CDT 8:07 PM CDT
Civil Twilight 6:08 AM CDT 8:36 PM CDT
Nautical Twilight 5:34 AM CDT 9:10 PM CDT
Astronomical Twilight 4:58 AM CDT 9:46 PM CDT
Moon 11:26 PM CDT (8/21) 12:13 PM CDT (8/21)
Length of Visible Light 14h 27m
Length of Day
13h 30m
Waning Gibbous, 69% of the Moon is Illuminated
Aug 21
Waning Gibbous
Aug 23
Last Quarter
Aug 30
New
Sep 5
First Quarter
Sep 13
Full

Hourly Weather History & Observations

Time (CDT) Temp. Dew Point Humidity Pressure Visibility Wind Dir Wind Speed Gust Speed Precip Events Conditions
12:53 AM 78.1 °F 72.0 °F 81% 29.96 in 10.0 mi Calm Calm - N/A   Clear
1:53 AM 79.0 °F 72.0 °F 79% 29.93 in 10.0 mi ESE 6.9 mph - N/A   Scattered Clouds
2:15 AM 78.1 °F 71.1 °F 79% 29.92 in 10.0 mi ESE 8.1 mph - N/A Thunderstorm Mostly Cloudy
2:31 AM 78.1 °F 71.1 °F 79% 29.91 in 10.0 mi SE 4.6 mph - N/A Thunderstorm Thunderstorm
2:53 AM 77.0 °F 72.0 °F 84% 29.91 in 10.0 mi NNW 12.7 mph - N/A Thunderstorm Thunderstorm
3:30 AM 75.0 °F 70.0 °F 84% 29.94 in 9.0 mi NW 15.0 mph 21.9 mph 0.01 in Rain , Thunderstorm Light Thunderstorms and Rain
3:39 AM 72.0 °F 66.0 °F 81% 29.95 in 9.0 mi NW 18.4 mph 25.3 mph 0.02 in Rain , Thunderstorm Light Thunderstorms and Rain
3:51 AM 73.4 °F 69.8 °F 88% 29.95 in 0.8 mi West 28.8 mph 42.6 mph 0.21 in Rain , Thunderstorm Heavy Thunderstorms and Rain
3:52 AM 72.0 °F 68.0 °F 87% 29.93 in 0.8 mi WNW 27.6 mph 42.6 mph 0.23 in Rain , Thunderstorm Heavy Thunderstorms and Rain
3:57 AM 72.0 °F 68.0 °F 87% 29.95 in 1.0 mi WNW 26.5 mph 42.6 mph 0.07 in Rain , Thunderstorm Heavy Thunderstorms and Rain
4:12 AM 72.0 °F 69.1 °F 91% 30.01 in - WSW 18.4 mph - 0.14 in Thunderstorm Thunderstorm
4:21 AM 72.0 °F 70.0 °F 93% 30.01 in 1.2 mi SW 17.3 mph - 0.38 in Rain , Thunderstorm Heavy Thunderstorms and Rain
4:33 AM 72.0 °F 70.0 °F 93% 30.00 in 0.8 mi WSW 10.4 mph - 0.63 in Rain , Thunderstorm Heavy Thunderstorms and Rain
4:41 AM 72.0 °F 70.0 °F 93% 30.01 in 1.8 mi SSW 10.4 mph - 0.73 in Rain , Thunderstorm Thunderstorms and Rain
4:54 AM 72.0 °F 69.1 °F 91% 29.98 in - NW 5.8 mph 18.4 mph 0.91 in Thunderstorm Thunderstorm
5:07 AM 72.0 °F 68.0 °F 87% 29.99 in 3.0 mi WNW 12.7 mph - 1.04 in Rain , Thunderstorm Thunderstorms and Rain
5:29 AM 71.1 °F 68.0 °F 90% 30.00 in 2.5 mi West 5.8 mph - 1.17 in Rain , Thunderstorm Heavy Thunderstorms and Rain
5:37 AM 70.0 °F 66.9 °F 90% 29.97 in 4.0 mi NW 12.7 mph 20.7 mph 1.21 in Rain , Thunderstorm Thunderstorms and Rain
5:53 AM 70.0 °F 66.9 °F 90% 29.95 in 10.0 mi North 3.5 mph - 1.22 in Thunderstorm Mostly Cloudy
6:53 AM 71.1 °F 66.9 °F 87% 30.04 in 9.0 mi SSE 8.1 mph - 0.04 in Rain , Thunderstorm Light Thunderstorms and Rain
7:05 AM 70.0 °F 68.0 °F 93% 30.08 in 7.0 mi Calm Calm - 0.01 in Rain , Thunderstorm Light Rain
7:36 AM 70.0 °F 68.0 °F 93% 30.06 in 5.0 mi ENE 5.8 mph - 0.08 in Rain Rain
7:53 AM 70.0 °F 66.9 °F 90% 30.01 in 5.0 mi North 9.2 mph - 0.12 in Rain Rain
8:53 AM 70.0 °F 66.9 °F 90% 29.97 in 10.0 mi SE 6.9 mph - 0.07 in Rain Light Rain
10:53 AM 72.0 °F 68.0 °F 87% 30.01 in 10.0 mi NNE 8.1 mph - 0.00 in   Scattered Clouds
11:53 AM 73.9 °F 69.1 °F 85% 30.04 in 10.0 mi SW 11.5 mph - 0.00 in   Clear
12:53 PM 77.0 °F 69.1 °F 76% 30.05 in 10.0 mi Calm Calm - N/A   Clear
1:53 PM 75.9 °F 69.1 °F 79% 30.02 in 10.0 mi Calm Calm - 0.00 in Rain Light Rain
2:53 PM 78.1 °F 69.1 °F 74% 30.00 in 10.0 mi SSE 4.6 mph - 0.00 in   Mostly Cloudy
3:30 PM 75.0 °F 70.0 °F 84% 30.06 in 1.5 mi West 9.2 mph - 0.08 in Rain Heavy Rain
3:34 PM 73.9 °F 71.1 °F 91% 30.06 in 0.5 mi Variable 5.8 mph 17.3 mph 0.16 in Fog , Rain Heavy Rain
3:50 PM 73.4 °F 71.6 °F 94% 30.02 in 1.0 mi ENE 6.9 mph - 0.38 in Rain Rain
3:53 PM 73.0 °F 70.0 °F 90% 30.00 in 1.8 mi East 8.1 mph - 0.38 in Rain Rain
3:57 PM 72.0 °F 70.0 °F 93% 30.02 in 3.0 mi ESE 5.8 mph - 0.01 in Rain Light Rain
4:53 PM 75.0 °F 70.0 °F 84% 29.98 in 10.0 mi East 5.8 mph - 0.01 in   Clear
5:53 PM 75.0 °F 69.1 °F 82% 29.98 in 10.0 mi NE 4.6 mph - 0.00 in Rain Light Rain
6:53 PM 75.0 °F 71.1 °F 87% 29.99 in 10.0 mi NNE 4.6 mph - 0.00 in   Overcast
7:53 PM 75.0 °F 71.1 °F 87% 29.98 in 10.0 mi NNE 4.6 mph - N/A   Overcast
8:53 PM 73.9 °F 71.1 °F 91% 29.98 in 10.0 mi NNE 4.6 mph - N/A   Overcast
9:53 PM 73.9 °F 70.0 °F 87% 30.00 in 10.0 mi NE 9.2 mph - N/A   Overcast
10:53 PM 73.0 °F 69.1 °F 87% 30.01 in 10.0 mi East 6.9 mph - 0.03 in Rain Light Rain
11:53 PM 72.0 °F 68.0 °F 87% 30.00 in 10.0 mi ENE 9.2 mph - 0.00 in   Overcast